�������l�o���
Date,Time,MP-1(��Sv/h),MP-2(��Sv/h),MP-3(��Sv/h),MP-4(��Sv/h),MP-5(��Sv/h),MP-6(��Sv/h),MP-7(��Sv/h),MP-8(��Sv/h),����,����(m/s),���J
2022/08/06,00:00,0.589,0.830,0.528,0.996,0.713,0.339,0.586,0.555,�k��,2.6,��
2022/08/06,00:10,0.589,0.828,0.527,0.996,0.712,0.338,0.586,0.553,�k�k��,2.6,��
2022/08/06,00:20,0.589,0.827,0.527,0.995,0.711,0.336,0.587,0.553,�k,3.2,��
2022/08/06,00:30,0.588,0.831,0.528,0.995,0.712,0.337,0.585,0.552,�k�k��,2.6,��
2022/08/06,00:40,0.590,0.831,0.527,0.994,0.711,0.338,0.588,0.553,�k�k��,3.3,��
2022/08/06,00:50,0.590,0.830,0.528,0.996,0.712,0.338,0.587,0.552,�k�k��,3.4,��
2022/08/06,01:00,0.590,0.830,0.527,0.996,0.712,0.338,0.588,0.554,�k�k��,3.3,��
2022/08/06,01:10,0.589,0.830,0.528,0.994,0.712,0.337,0.588,0.553,�k�k��,3.2,��
2022/08/06,01:20,0.589,0.829,0.528,0.996,0.712,0.337,0.586,0.555,�k�k��,3.7,��
2022/08/06,01:30,0.589,0.828,0.527,0.995,0.712,0.338,0.585,0.553,�k,3.6,��
2022/08/06,01:40,0.589,0.829,0.527,0.996,0.710,0.339,0.588,0.553,�k,4.0,��
2022/08/06,01:50,0.591,0.830,0.527,0.994,0.712,0.339,0.589,0.553,�k�k��,4.7,��
2022/08/06,02:00,0.590,0.829,0.526,0.997,0.713,0.338,0.586,0.553,�k�k��,4.0,��
2022/08/06,02:10,0.589,0.830,0.528,0.998,0.713,0.338,0.587,0.555,�k,3.6,��
2022/08/06,02:20,0.590,0.830,0.528,0.994,0.712,0.338,0.588,0.553,�k,3.7,��
2022/08/06,02:30,0.588,0.830,0.527,0.997,0.713,0.339,0.587,0.555,�k�k��,3.4,��
2022/08/06,02:40,0.591,0.831,0.526,0.994,0.713,0.337,0.587,0.554,�k�k��,3.2,��
2022/08/06,02:50,0.589,0.830,0.526,0.996,0.711,0.338,0.585,0.554,�k�k��,2.6,��
2022/08/06,03:00,0.590,0.829,0.528,0.996,0.712,0.338,0.588,0.554,�k�k��,2.8,��
2022/08/06,03:10,0.590,0.829,0.527,0.995,0.712,0.337,0.587,0.553,�k�k��,2.5,��
2022/08/06,03:20,0.590,0.830,0.528,0.997,0.712,0.337,0.587,0.554,�k�k��,2.6,��
2022/08/06,03:30,0.590,0.830,0.529,0.998,0.710,0.338,0.586,0.553,�k�k��,2.3,��
2022/08/06,03:40,0.590,0.831,0.528,0.996,0.710,0.339,0.587,0.553,�k�k��,2.2,��
2022/08/06,03:50,0.590,0.828,0.528,0.993,0.712,0.336,0.587,0.554,�k�k��,2.2,��
2022/08/06,04:00,0.588,0.830,0.527,0.995,0.711,0.338,0.588,0.554,�k�k��,2.3,��
2022/08/06,04:10,0.590,0.830,0.527,0.997,0.710,0.337,0.588,0.554,�k�k��,2.3,��
2022/08/06,04:20,0.590,0.829,0.529,0.996,0.711,0.339,0.586,0.554,�k�k��,1.9,��
2022/08/06,04:30,0.589,0.829,0.528,0.996,0.711,0.339,0.586,0.553,�k��,1.5,��
2022/08/06,04:40,0.587,0.829,0.529,0.995,0.712,0.338,0.588,0.553,�k�k��,1.2,��
2022/08/06,04:50,0.588,0.828,0.527,0.995,0.710,0.339,0.588,0.554,�k�k��,1.1,��
2022/08/06,05:00,0.589,0.829,0.527,0.996,0.711,0.337,0.587,0.553,�k�k��,1.5,��
2022/08/06,05:10,0.590,0.831,0.528,0.993,0.710,0.338,0.587,0.555,�k,1.2,��
2022/08/06,05:20,0.590,0.828,0.527,0.997,0.710,0.338,0.588,0.553,�k,1.5,��
2022/08/06,05:30,0.589,0.830,0.527,0.997,0.711,0.337,0.588,0.554,�k�k��,1.2,��
2022/08/06,05:40,0.590,0.830,0.528,0.996,0.713,0.339,0.588,0.554,�k�k��,1.7,��
2022/08/06,05:50,0.589,0.830,0.528,0.999,0.712,0.336,0.588,0.553,�k�k��,1.7,��
2022/08/06,06:00,0.590,0.832,0.528,0.997,0.712,0.338,0.587,0.554,�k�k��,2.0,��
2022/08/06,06:10,0.590,0.829,0.528,0.995,0.711,0.340,0.589,0.554,�k�k��,2.0,��
2022/08/06,06:20,0.591,0.829,0.528,0.995,0.712,0.338,0.587,0.553,�k�k��,2.0,��
2022/08/06,06:30,0.590,0.830,0.526,0.997,0.711,0.339,0.589,0.555,�k�k��,1.5,��
2022/08/06,06:40,0.591,0.830,0.527,0.998,0.710,0.337,0.588,0.556,�k�k��,1.5,��
2022/08/06,06:50,0.588,0.830,0.527,0.996,0.709,0.338,0.588,0.554,�k�k��,1.5,��
2022/08/06,07:00,0.589,0.827,0.526,0.996,0.710,0.336,0.589,0.554,�k�k��,1.5,��
2022/08/06,07:10,0.590,0.829,0.526,0.998,0.710,0.337,0.588,0.553,�k�k��,1.7,��
2022/08/06,07:20,0.592,0.829,0.528,0.997,0.710,0.336,0.588,0.555,�k,1.2,��
2022/08/06,07:30,0.590,0.828,0.527,0.998,0.713,0.336,0.588,0.554,�k,1.4,��
2022/08/06,07:40,0.591,0.827,0.526,0.998,0.712,0.337,0.587,0.554,�k��,2.3,��
2022/08/06,07:50,0.588,0.829,0.526,0.997,0.711,0.337,0.587,0.553,�k,2.8,��
2022/08/06,08:00,0.588,0.827,0.527,0.996,0.712,0.337,0.587,0.553,�k��,1.4,��
2022/08/06,08:10,0.589,0.828,0.528,0.996,0.711,0.336,0.587,0.552,�k��,1.7,��
2022/08/06,08:20,0.590,0.827,0.527,0.997,0.713,0.336,0.587,0.551,���k��,1.7,��
2022/08/06,08:30,0.590,0.828,0.525,0.996,0.711,0.337,0.586,0.552,�k�k��,2.6,��
2022/08/06,08:40,0.591,0.828,0.526,0.997,0.711,0.338,0.587,0.553,�k��,3.1,��
2022/08/06,08:50,0.591,0.828,0.526,0.994,0.709,0.337,0.587,0.552,�k��,3.6,��
2022/08/06,09:00,0.591,0.829,0.524,0.996,0.712,0.338,0.589,0.552,�k��,3.5,��
2022/08/06,09:10,0.590,0.830,0.526,0.998,0.712,0.336,0.587,0.551,�k��,3.7,��
2022/08/06,09:20,0.590,0.830,0.527,0.998,0.709,0.336,0.588,0.552,�k��,3.4,��
2022/08/06,09:30,0.590,0.829,0.526,0.997,0.715,0.338,0.587,0.552,���k��,3.6,��
2022/08/06,09:40,0.590,0.832,0.527,0.997,0.712,0.338,0.588,0.553,���k��,3.7,��
2022/08/06,09:50,0.590,0.832,0.527,0.997,0.712,0.337,0.587,0.552,�k��,3.2,��
2022/08/06,10:00,0.590,0.831,0.525,0.995,0.712,0.338,0.587,0.552,�k��,3.2,��
2022/08/06,10:10,0.590,0.831,0.526,0.997,0.711,0.336,0.589,0.553,�k��,3.7,��
2022/08/06,10:20,0.591,0.833,0.525,0.996,0.713,0.337,0.588,0.553,�k��,3.6,��
2022/08/06,10:30,0.591,0.830,0.527,0.996,0.712,0.337,0.587,0.553,�k��,3.0,��
2022/08/06,10:40,0.590,0.831,0.526,1.000,0.714,0.337,0.588,0.551,���k��,3.4,��
2022/08/06,10:50,0.590,0.832,0.527,0.998,0.713,0.339,0.588,0.553,�k��,3.1,��
2022/08/06,11:00,0.591,0.833,0.527,0.995,0.714,0.337,0.588,0.552,���k��,2.8,��
2022/08/06,11:10,0.591,0.833,0.526,0.994,0.713,0.337,0.586,0.552,���k��,2.3,��
2022/08/06,11:20,0.592,0.834,0.528,0.997,0.713,0.339,0.587,0.552,��,2.2,��
2022/08/06,11:30,0.590,0.833,0.526,0.997,0.714,0.339,0.586,0.553,��,2.6,��
2022/08/06,11:40,0.592,0.834,0.527,0.997,0.713,0.338,0.589,0.552,���쓌,2.3,��
2022/08/06,11:50,0.590,0.835,0.526,0.996,0.712,0.337,0.587,0.552,��,2.6,��
2022/08/06,12:00,0.592,0.832,0.526,0.998,0.715,0.337,0.587,0.551,���쓌,2.5,��
2022/08/06,12:10,0.591,0.833,0.527,0.996,0.713,0.340,0.588,0.553,���쓌,2.2,��
2022/08/06,12:20,0.593,0.834,0.528,0.997,0.715,0.338,0.588,0.553,���쓌,2.0,��
2022/08/06,12:30,0.591,0.833,0.528,0.998,0.712,0.337,0.588,0.553,���쓌,2.2,��
2022/08/06,12:40,0.592,0.834,0.526,0.997,0.717,0.338,0.587,0.553,���k��,2.3,��
2022/08/06,12:50,0.593,0.835,0.526,0.996,0.714,0.338,0.587,0.552,���쓌,1.7,��
2022/08/06,13:00,0.593,0.834,0.528,0.999,0.715,0.339,0.587,0.553,��,1.7,��
2022/08/06,13:10,0.593,0.832,0.529,0.998,0.713,0.339,0.588,0.552,�쓌,2.6,��
2022/08/06,13:20,0.593,0.834,0.527,0.997,0.714,0.338,0.588,0.552,�쓌,1.4,��
2022/08/06,13:30,0.590,0.834,0.527,0.997,0.717,0.338,0.589,0.553,���쓌,2.3,��
2022/08/06,13:40,0.589,0.835,0.528,0.997,0.716,0.339,0.587,0.553,�쓌,2.8,��
2022/08/06,13:50,0.589,0.835,0.527,0.998,0.717,0.339,0.588,0.553,�쓌,2.6,��
2022/08/06,14:00,0.590,0.835,0.528,0.998,0.717,0.339,0.587,0.553,�쓌,2.2,��
2022/08/06,14:10,0.588,0.835,0.527,1.000,0.716,0.338,0.586,0.553,���쓌,2.3,��
2022/08/06,14:20,0.589,0.837,0.526,0.997,0.716,0.339,0.587,0.554,�쓌,2.6,��
2022/08/06,14:30,0.589,0.836,0.528,0.997,0.718,0.339,0.587,0.553,�쓌,3.0,��
2022/08/06,14:40,0.589,0.835,0.527,1.000,0.716,0.339,0.588,0.553,���쓌,2.6,��
2022/08/06,14:50,0.592,0.836,0.528,1.001,0.717,0.338,0.587,0.553,�쓌,2.8,��
2022/08/06,15:00,0.593,0.834,0.526,0.999,0.716,0.339,0.588,0.554,���쓌,3.2,��
2022/08/06,15:10,0.593,0.836,0.528,1.000,0.718,0.340,0.586,0.552,�쓌,3.6,��
2022/08/06,15:20,0.591,0.836,0.528,1.000,0.718,0.339,0.588,0.555,�쓌,3.1,��
2022/08/06,15:30,0.594,0.836,0.529,1.001,0.716,0.339,0.586,0.553,��쓌,3.8,��
2022/08/06,15:40,0.593,0.837,0.529,1.001,0.717,0.340,0.587,0.554,��쓌,3.4,��
2022/08/06,15:50,0.592,0.837,0.529,0.999,0.717,0.339,0.588,0.553,��쓌,3.4,��
2022/08/06,16:00,0.593,0.835,0.529,1.001,0.716,0.339,0.588,0.554,�쓌,2.9,��
2022/08/06,16:10,0.593,0.836,0.528,1.000,0.716,0.337,0.588,0.552,�쓌,2.5,��
2022/08/06,16:20,0.592,0.835,0.528,1.001,0.719,0.339,0.588,0.554,��쓌,2.8,��
2022/08/06,16:30,0.593,0.835,0.529,1.000,0.716,0.339,0.589,0.552,��쓌,2.6,��
2022/08/06,16:40,0.593,0.836,0.529,1.002,0.718,0.339,0.589,0.552,�쓌,2.6,��
2022/08/06,16:50,0.593,0.837,0.527,1.001,0.717,0.338,0.590,0.554,�쓌,3.1,��
2022/08/06,17:00,0.594,0.835,0.530,1.002,0.715,0.339,0.587,0.553,���쓌,2.3,��
2022/08/06,17:10,0.595,0.835,0.529,1.002,0.716,0.338,0.587,0.553,��쓌,1.9,��
2022/08/06,17:20,0.593,0.836,0.529,1.004,0.716,0.337,0.588,0.555,�쓌,2.6,��
2022/08/06,17:30,0.593,0.835,0.528,1.003,0.717,0.338,0.587,0.553,��쓌,1.7,��
2022/08/06,17:40,0.594,0.836,0.529,1.004,0.719,0.337,0.587,0.555,��쓌,1.7,��
2022/08/06,17:50,0.594,0.836,0.528,1.004,0.718,0.338,0.587,0.555,�쓌,2.6,��
2022/08/06,18:00,0.593,0.836,0.530,1.003,0.716,0.337,0.589,0.555,�쓌,2.8,��
2022/08/06,18:10,0.591,0.837,0.531,1.002,0.716,0.338,0.589,0.555,��쓌,2.6,��
2022/08/06,18:20,0.592,0.837,0.530,1.005,0.719,0.336,0.588,0.556,�쓌,2.6,��
2022/08/06,18:30,0.594,0.839,0.530,1.004,0.717,0.337,0.589,0.555,�쓌,2.3,��
2022/08/06,18:40,0.595,0.837,0.531,1.005,0.718,0.338,0.589,0.554,�쓌,2.5,��
2022/08/06,18:50,0.594,0.839,0.532,1.003,0.719,0.337,0.589,0.554,���쓌,2.2,��
2022/08/06,19:00,0.594,0.838,0.528,1.006,0.717,0.338,0.590,0.555,�쓌,1.7,��
2022/08/06,19:10,0.594,0.837,0.530,1.003,0.715,0.339,0.590,0.555,��,2.3,��
2022/08/06,19:20,0.594,0.840,0.530,1.004,0.716,0.337,0.590,0.556,��쓌,2.0,��
2022/08/06,19:30,0.594,0.839,0.532,1.003,0.717,0.338,0.588,0.555,��,2.2,��
2022/08/06,19:40,0.593,0.838,0.530,1.006,0.718,0.339,0.589,0.556,��,2.2,��
2022/08/06,19:50,0.594,0.838,0.531,1.003,0.716,0.338,0.590,0.555,��,2.5,��
2022/08/06,20:00,0.593,0.838,0.529,1.004,0.717,0.338,0.590,0.556,��,2.3,��
2022/08/06,20:10,0.595,0.840,0.530,1.002,0.718,0.338,0.588,0.556,��,2.3,��
2022/08/06,20:20,0.594,0.838,0.532,1.005,0.718,0.338,0.589,0.554,��,2.6,��
2022/08/06,20:30,0.593,0.840,0.530,1.004,0.721,0.338,0.588,0.555,��,2.3,��
2022/08/06,20:40,0.594,0.841,0.531,1.003,0.721,0.339,0.589,0.555,��,1.7,��
2022/08/06,20:50,0.595,0.840,0.532,1.005,0.721,0.340,0.589,0.554,��,1.9,��
2022/08/06,21:00,0.594,0.838,0.529,1.005,0.719,0.339,0.589,0.554,��,1.4,��
2022/08/06,21:10,0.596,0.839,0.532,1.004,0.720,0.337,0.591,0.557,��,1.7,��
2022/08/06,21:20,0.594,0.841,0.531,1.004,0.720,0.338,0.590,0.554,��,1.7,��
2022/08/06,21:30,0.594,0.842,0.530,1.003,0.719,0.339,0.590,0.555,��쐼,1.7,��
2022/08/06,21:40,0.595,0.840,0.532,1.004,0.720,0.339,0.589,0.555,��쐼,3.1,��
2022/08/06,21:50,0.594,0.843,0.532,1.004,0.721,0.338,0.590,0.555,��,3.7,��
2022/08/06,22:00,0.594,0.841,0.530,1.004,0.721,0.339,0.589,0.554,��,4.9,��
2022/08/06,22:10,0.596,0.841,0.530,1.004,0.720,0.338,0.590,0.556,��,4.9,��
2022/08/06,22:20,0.594,0.842,0.532,1.004,0.720,0.339,0.591,0.556,��,5.0,��
2022/08/06,22:30,0.594,0.841,0.530,1.005,0.718,0.339,0.589,0.554,��,4.1,��
2022/08/06,22:40,0.595,0.842,0.531,1.005,0.721,0.339,0.589,0.555,��,4.0,��
2022/08/06,22:50,0.593,0.840,0.532,1.005,0.721,0.338,0.589,0.556,��쐼,3.3,��
2022/08/06,23:00,0.596,0.841,0.532,1.006,0.721,0.339,0.592,0.556,��쐼,2.9,��
2022/08/06,23:10,0.593,0.840,0.529,1.006,0.720,0.338,0.591,0.557,��,3.2,��
2022/08/06,23:20,0.591,0.841,0.532,1.006,0.720,0.339,0.591,0.556,��,3.6,��
2022/08/06,23:30,0.595,0.842,0.530,1.004,0.720,0.338,0.589,0.555,��,4.1,��
2022/08/06,23:40,0.596,0.843,0.531,1.005,0.719,0.339,0.591,0.554,��,4.0,��
2022/08/06,23:50,0.594,0.842,0.531,1.004,0.721,0.339,0.590,0.555,��,5.0,��
